Location: Mascot Post Office (historical)
(40.2645°N, 99.5462°W)
Time: 02:20:13
(UTC+00:00)

CZ-2C R/B - Pass Details

Date: 14 July 2020
Orbit: 667 x 785 km, 98.2° (Epoch: 14 August)

Event Time Altitude Azimuth Distance (km) Brightness Sun altitude
Rises 10:32:23 0° 15° (NNE) 3,118 6.6 -8.5°
Reaches altitude 10° 10:34:42 10° 18° (NNE) 2,177 5.8 -8.2°
Maximum altitude 10:39:26 67° 101° (E) 745 2.7 -7.5°
Drops below altitude 10° 10:44:00 10° 185° (S) 2,104 4.4 -6.8°
Sets 10:46:13 0° 188° (S) 3,005 5.2 -6.4°
